Terminal Aerodrome Forecast
Issued by NWS Cleveland, OH

Home | Current Version | Previous Version | Text Only | Print | Product List | Glossary Off
Versions: 1 2 3 4 5 6 7 8 9 10 11 12 13 14 15 16

000
FTUS41 KCLE 011100
TAFYNG
TAF
KYNG 011120Z 0112/0212 33004KT 4SM BR SCT120
     FM011300 34006KT P6SM SCT060
     FM020000 34004KT P6SM SKC=

USA.gov is the U.S. government's official web portal to all federal, state and local government web resources and services.